[ hide orbit diagram ]
For accurate long-term ephemerides, please instead use our Horizons system.This orbit viewer was implemented using two-body methods, and hence should not be used for determining accurate long-term trajectories (over several years or decades) or planetary encounter circumstances.
Orbital Elements at Epoch 2459000.5 (2020-May-31.0) TDB
Reference: JPL 37 (heliocentric ecliptic J2000)
Element | Value | Uncertainty (1-sigma) | Units |
e | .1241054896458849 | 3.892e-08 | |
a | 3.131532046638629 | 1.8544e-08 | au |
q | 2.742891728648762 | 1.2514e-07 | au |
i | 19.38911318321848 | 5.5497e-06 | deg |
node | 347.5600897029421 | 1.2048e-05 | deg |
peri | 64.47724618917026 | 2.6246e-05 | deg |
M | 326.4828111912325 | 2.1236e-05 | deg |
tp | 2459188.951154587954 (2020-Dec-05.45115459) | 0.00011928 | TDB |
period | 2024.108168460634 5.54 | 1.7979e-05 4.922e-08 | d yr |
n | .1778561074993268 | 1.5798e-09 | deg/d |
Q | 3.520172364628496 | 2.0845e-08 | au |
|
| | Orbit Determination Parameters
Additional Information
|
[ show covariance matrix ]
Physical Parameter Table
Parameter |
Symbol |
Value |
Units |
Sigma |
Reference |
Notes |
absolute magnitude |
H |
11.1 |
|
n/a |
MPO502210 |
|
diameter |
diameter |
16.514 |
km |
0.066 |
urn:nasa:pds:neowise_diameters_albedos::2.0[mainbelt] (http://adsabs.harvard.edu/abs/2014ApJ...791..121M) |
|
rotation period |
rot_per |
2.93681 |
h |
n/a |
LCDB (Rev. 2020-October); Warner et al., 2009 |
Published Reference List: [Behrend, R. (2016) Observatoire de Geneve web site, http://obswww.unige.ch/~behrend/page_cou.html] |
geometric albedo |
albedo |
0.283 |
|
0.039 |
urn:nasa:pds:neowise_diameters_albedos::2.0[mainbelt] (http://adsabs.harvard.edu/abs/2014ApJ...791..121M) |
|
|
5920 (1992 SX17) Discovered 1992-Sep-30 by Holt, H. E. at Palomar |
Reference: DISCOVERY.DB | Last Updated: 2003-08-29 |
|
Alternate Designations
1992 SX17 = 1948 TD2 = 1953 SO = 1983 HB2 = 1990 EG |
|
|